Showing default

CENTISPACE-1 S10, 62579

Orbit data source: Space-Track

CENTISPACE-1 S10, 62579 is a payload satellite owned by Centispace (CN) in LEO that was launched on Mon, 13 Jan 2025 UTC via a JIELONG-3 launch vehicle from the Yellow Sea Launch Area, China (YSLA). Payload-class satellites include a variety of spacecraft equipped with specific instruments for various scientific and technological missions. These include communications satellites like Starlink; space stations such as the ISS; scientific satellites like the Hubble; Earth observation satellites from companies like Planet Labs, Umbra, and HawkEye 360; GPS; miniature CubeSats for education and research; and military/defense satellites.

Loading next visibility...
Identifier
62579, 2025-007E
Orbit
LEO
Country
Flag of CNCN / PRC
Related business
Manufacturer
DFH Shenzhen
Mission
Operational Commercial Nav/Com
Bus & Motor
WK01, Unknown motor
Mass
140 kg wet, 140 kg dry
Launch date (UTC)
2025-01-13 (10 months ago)
Launch vehicle
JIELONG-3
Launch site
Yellow Sea Launch Area, China (YSLA)
Object type
Payload
Rocket body
Debris
Shape & HBR
Box + 2 Pan, 0.9 m
Radar Cross Section
0.833 m², Medium (>0.1 m² and < 1m²)

Expand to show TLE details & history
Last TLE update: 1 day ago

TLE from 1 day ago
0 CENTISPACE-1 S10
1 62579U 25007E   25306.49190337  .00000125  00000-0  91832-4 0  9990
2 62579  54.9875  26.8222 0047129 101.9020 258.7253 14.39068160 43048
Epoch: 2025-11-02T11:48Z
TLE epoch observation values (Epoch: 2025-11-02T11:48:20.451Z)
Latitude
-0.00001°
Longitude
167.73012°
Altitude
769.361 km
Speed
7.467 km/s
True Right ascension
01h 47m 17s
True Declination
0° 00' 00"
Sunlit
Object was in full shadow at epoch
Visualization orbit readout
Latitude
Unknown
Longitude
Unknown
Altitude
Unknown
Speed
Unknown
Apparent Right ascension
Unknown
Apparent Declination
Unknown
Sunlit
N/A
Visualization observer readout
Local Sidereal Time
15:46:45
Azimuth
Unknown
Elevation
Unknown
Doppler factor
Unknown
Orbital elements
Apogee altitude
795.194 km
Perigee altitude
727.896 km
Semi-major axis
7,139.682 km
Eccentricity
0.00471
Inclination
54.9875°
RAAN
26.8222°
Arg. of periapsis
101.902°
True anomaly
258.19628°
Mean anomaly
258.7253°
Eccentric anomaly
258.46073°
Mean motion
3.5977 °/min
Orbital period
100.06 mins
BSTAR
0.000091832
Loading maneuver chart data...
Computing Atmospheric mass density...
Loading historical data...
Loading historical data...
Loading historical data...
Loading historical data...
Loading historical data...
Loading historical data...
Loading historical data...

Documentation

Showing up to 5 results
|